Cloud_Cover
100 75 93 78 96 60 100 13 20 5 3 2 0 0 0 0 0 0 0 0 0 0 4 100 90 74 38 79 50 55 70 100 6 39 5 24 91 33 100 86 5 0 0 0 0 0 0
100 32 70 32 82 100 51 20 28 9 8 1 0 0 0 0 0 0 0 0 0 0 20 14 98 61 53 96 96 97 88 100 98 88 5 5 5 16 94 100 6 0 0 0 0 26 46
100 66 3 1 68 36 100 100 100 64 11 1 0 0 0 0 0 0 0 0 0 0 5 6 9 75 100 100 100 100 100 100 91 36 5 5 9 22 100 54 5 42 63 0 0 49 4
100 90 0 0 0 13 96 100 100 100 80 8 3 0 0 0 0 0 0 0 0 5 4 5 14 100 100 100 100 100 100 100 97 96 52 65 35 100 100 100 97 49 4 0 3 10 4
100 61 93 9 0 0 10 84 100 100 100 37 8 2 0 0 0 0 0 0 0 0 5 7 19 99 100 100 100 100 100 100 100 100 100 100 100 100 100 100 100 93 1 2 91 80 4
97 98 94 100 58 4 0 30 100 100 100 99 16 2 0 0 0 0 0 0 0 5 13 5 18 90 97 94 100 100 100 100 100 100 100 100 100 100 100 100 37 31 0 0 22 31 59
24 38 15 53 12 0 0 0 65 100 100 100 15 7 0 0 0 0 0 0 0 1 5 5 27 100 97 80 100 100 100 100 100 100 100 100 100 100 100 100 100 92 17 8 5 100 81
79 9 5 3 4 10 0 0 1 100 100 100 6 7 0 0 0 0 0 0 0 0 0 5 31 5 30 87 100 98 93 100 100 100 100 100 100 100 100 100 100 85 85 90 87 97 3
89 16 5 5 5 3 0 0 0 27 100 100 12 0 0 0 0 0 0 0 0 0 0 0 0 5 6 9 34 100 100 100 100 100 100 100 100 91 91 84 95 34 5 5 0 0 0
5 97 5 5 5 5 0 0 0 1 100 98 19 0 0 0 0 0 0 0 0 4 5 0 5 5 12 32 45 93 100 100 100 100 94 98 63 72 35 88 94 85 98 22 0 0 0
5 5 5 5 5 5 5 5 1 5 96 100 8 0 0 0 0 0 0 0 1 5 0 5 5 16 5 5 71 92 100 100 100 100 100 94 71 100 100 100 100 100 100 0 0 0 0
5 14 5 5 5 5 5 5 5 5 25 87 0 0 0 0 0 0 0 0 0 1 3 5 15 70 100 21 27 48 100 100 100 89 94 75 96 100 100 100 100 100 44 78 5 0 3
86 5 12 5 5 10 43 5 6 64 5 8 4 0 0 0 0 0 0 0 2 2 2 4 35 99 100 100 99 100 100 100 100 100 100 100 100 100 100 100 100 100 5 88 4 4 80
96 22 84 73 26 12 100 28 5 100 77 20 1 0 0 0 0 0 0 0 0 0 0 3 30 94 100 100 100 100 100 100 80 100 100 100 100 100 100 100 100 100 28 2 4 93 100
100 100 100 100 100 67 100 100 100 100 95 5 4 4 0 0 0 0 0 0 0 0 0 0 1 5 93 94 100 100 100 100 100 100 100 100 100 100 100 100 100 98 5 46 100 100 100
100 100 100 100 100 100 33 100 63 99 100 20 5 11 4 1 5 0 0 0 0 0 0 0 0 1 4 60 100 100 74 100 100 100 100 100 100 100 100 100 100 100 100 100 100 100 100
100 100 100 100 100 100 100 99 100 96 100 100 5 99 7 6 5 1 0 0 0 0 0 0 0 0 0 0 8 100 95 92 100 100 100 100 100 100 100 100 100 100 100 100 100 100 100
100 100 100 100 100 100 100 100 100 100 100 100 55 38 92 89 5 5 1 0 0 0 0 0 0 0 0 0 0 0 49 99 96 84 46 29 100 100 100 100 100 100 100 100 100 100 100
100 100 100 100 100 100 100 100 100 100 100 100 100 100 100 100 100 10 3 0 0 0 0 0 3 1 0 0 0 0 0 0 77 49 84 14 0 37 23 100 64 94 94 87 88 99 100
100 100 100 100 100 100 100 100 100 100 100 100 100 100 100 100 100 100 8 2 0 0 0 0 0 1 4 19 25 2 0 0 0 0 5 68 100 49 6 69 82 64 58 45 57 36 38
100 100 100 100 100 100 100 100 100 100 100 100 100 100 100 100 100 100 84 5 0 0 0 0 0 0 0 1 13 90 56 8 4 5 0 1 7 38 82 100 100 97 52 8 18 52 67
100 100 100 100 100 100 100 100 100 100 100 100 100 100 100 100 100 100 61 11 5 0 5 5 0 0 0 0 4 5 48 20 55 7 5 5 3 4 5 3 5 20 43 12 19 90 100
100 100 100 100 100 100 100 100 100 100 100 100 100 100 100 100 100 100 75 5 27 37 1 5 64 10 0 0 0 4 3 5 5 5 5 3 2 2 1 4 5 5 5 5 3 5 9
100 100 100 100 100 100 100 100 100 100 100 100 99 100 100 100 100 100 100 45 12 81 2 3 100 100 37 1 1 0 0 4 5 2 1 1 5 5 48 1 2 5 4 4 4 4 4
100 100 100 100 100 100 100 100 100 100 100 100 100 96 100 100 100 100 100 100 93 60 5 5 5 18 100 99 87 18 5 5 50 100 87 14 4 3 4 4 6 59 33 5 2 4 72
100 100 100 100 100 100 100 100 99 100 100 100 100 100 96 90 100 100 100 100 100 92 100 98 20 29 5 5 6 100 6 6 85 100 100 100 100 98 56 24 48 100 78 32 5 4 5
100 100 100 100 100 100 100 100 97 100 100 100 100 100 100 100 100 100 100 100 100 100 100 100 31 5 5 5 5 10 13 18 8 5 24 44 86 99 29 19 5 12 51 98 100 80 40
100 100 100 100 100 100 100 100 100 100 100 100 100 100 100 100 100 100 100 100 100 100 100 99 100 63 22 77 97 100 93 100 62 90 94 10 12 5 13 5 10 34 38 18 2 4 38
100 100 100 100 100 100 100 100 100 100 100 100 100 100 100 100 100 100 98 100 100 100 100 100 100 100 100 100 52 9 43 39 100 99 100 62 63 89 100 45 19 5 5 2 3 5 5